Home > Weather > Sumqayit > Past weeks

Flag for Azerbaijan Past Weather in Sumqayit, Azerbaijan — Yesterday and Last 2 Weeks

Now
86 °F

Scattered clouds.


Feels Like: 88 °F
Forecast: 69 / 82 °F
Wind: 8 mph from East

Location: Baku / Bine Airport

Current Time: Jul 27, 2016 at 3:43:28 PM

Latest Report: Jul 27, 2016 at 3:00 PM


Visibility: N/A

Pressure: 29.86 "Hg

Humidity: 52%

Dew Point: 66 °F

Location of SumqayitLocation

Past Weather in Sumqayit — Graph

°F

Sumqayit Temperature Yesterday

Maximum temperature yesterday: 84 °F (at 10:00 AM)
Minimum temperature yesterday: 70 °F (at 5:00 AM)
Average temperature yesterday: 78 °F

High & Low Weather Summary for the Past Weeks

 TemperatureHumidityPressure
High99 °F (Jul 18, 12:00 PM)94% (Jul 19, 5:00 AM)30.12 "Hg (Jul 19, 5:00 AM)
Low64 °F (Jul 13, 5:00 AM)19% (Jul 19, 4:00 PM)29.53 "Hg (Jul 19, 1:00 PM)
Average81 °F63%29.82 "Hg
* Reported Jul 12 2:00 PM — Jul 27 2:30 PM, Sumqayit, Weather by CustomWeather, © 2016

Note: Actual official high and low records may vary slightly from our data, if they occured in-between our weather recording intervals... More about our weather records

Advertising

Sumqayit Weather History for the Previous 24 Hours

Scroll right to see more
 ConditionsComfort  
Time TempWeatherWind HumidityBarometerVisibility
2:30 PM
Wed, Jul 27
86 °FScattered clouds.8 mph52%29.86 "HgN/A
2:00 PM84 °FScattered clouds.8 mph55%29.86 "HgN/A
1:30 PM86 °FSunny.7 mph38%29.86 "Hg10 mi
1:00 PM86 °FSunny.5 mph38%29.89 "Hg10 mi
12:30 PM86 °FSunny.9 mph38%29.89 "Hg10 mi
12:00 PM86 °FPartly sunny.6 mph38%29.89 "HgN/A
11:30 AM84 °FPartly sunny.7 mph43%29.89 "HgN/A
11:00 AM84 °FPartly sunny.10 mph43%29.89 "HgN/A
10:30 AM84 °FPartly sunny.8 mph45%29.89 "HgN/A
10:00 AM84 °FPartly sunny.5 mph48%29.89 "HgN/A
9:30 AM82 °FSunny.6 mph51%29.89 "Hg10 mi
9:00 AM82 °FSunny.2 mph55%29.89 "Hg10 mi
8:30 AM79 °FSunny.3 mph65%29.89 "Hg10 mi
8:00 AM79 °FSunny.3 mph70%29.89 "Hg10 mi
7:30 AM77 °FSunny.No wind74%29.89 "Hg10 mi
7:00 AM77 °FSunny.No wind74%29.89 "Hg10 mi
6:30 AM73 °FSunny.No wind83%29.89 "Hg10 mi
6:00 AM72 °FSunny.No wind83%29.89 "Hg10 mi
5:30 AM70 °FClear.No wind88%29.89 "Hg10 mi
5:00 AM70 °FClear.3 mph88%29.86 "Hg10 mi
4:30 AM70 °FClear.1 mph88%29.86 "Hg10 mi
4:00 AM70 °FPassing clouds.5 mph88%29.86 "HgN/A
3:30 AM70 °FPassing clouds.6 mph88%29.86 "HgN/A
3:00 AM72 °FPassing clouds.6 mph83%29.86 "HgN/A
2:30 AM72 °FPassing clouds.7 mph83%29.86 "HgN/A
2:00 AM72 °FPassing clouds.6 mph83%29.89 "HgN/A
1:30 AM72 °FPassing clouds.5 mph83%29.89 "HgN/A
1:00 AM73 °FPassing clouds.6 mph78%29.89 "HgN/A
12:30 AM73 °FClear.7 mph78%29.89 "Hg10 mi
12:00 AM73 °FClear.6 mph78%29.89 "Hg10 mi
11:30 PM
Tue, Jul 26
75 °FClear.7 mph74%29.92 "Hg10 mi
11:00 PM75 °FClear.6 mph74%29.92 "Hg10 mi
10:30 PM75 °FClear.8 mph74%29.92 "Hg10 mi
10:00 PM75 °FClear.6 mph74%29.92 "Hg10 mi
9:30 PM75 °FClear.7 mph74%29.92 "Hg10 mi
9:00 PM75 °FClear.7 mph74%29.92 "Hg10 mi
8:30 PM75 °FClear.9 mph74%29.92 "Hg10 mi
8:00 PM77 °FClear.10 mph69%29.89 "Hg10 mi
7:30 PM77 °FSunny.10 mph69%29.89 "Hg10 mi
7:00 PM79 °FSunny.10 mph61%29.89 "Hg10 mi
6:30 PM79 °FSunny.10 mph61%29.89 "Hg10 mi
6:00 PM81 °FSunny.13 mph58%29.89 "Hg10 mi
5:30 PM81 °FSunny.14 mph58%29.86 "Hg10 mi
5:00 PM82 °FSunny.15 mph51%29.86 "Hg10 mi
4:30 PM82 °FSunny.16 mph51%29.86 "Hg10 mi
4:00 PM84 °FPassing clouds.16 mph45%29.86 "HgN/A
3:30 PM84 °FPassing clouds.15 mph48%29.86 "HgN/A
3:00 PM84 °FPassing clouds.16 mph51%29.86 "HgN/A
Weather by CustomWeather, © 2016

See weather overviewHow to use our weather pages